User: anonymous   Login
Location: Santa Barbara
(34.4500°N, 119.7700°W)
Time: 00:46:18
(UTC-07:00)
Language:

Cosmos 1626 Rocket - Orbit

View from above orbital plane
View from above orbital plane
View from above satellite
View from above satellite

Ground track
Ground track

The orbit data is extracted from the following two-line orbital elements,

1 15495U 85009B   15247.77006492  .00000127  00000-0  12514-4 0  9997
2 15495  82.5220  77.5701 0019245 322.7176  37.2702 14.83600681653373
Epoch (UTC): 04 September 2015 18:28:53
Eccentricity: 0.0019245
inclination: 82.5220°
perigee height: 604 km
apogee height: 631 km
right ascension of ascending node: 77.5701°
argument of perigee: 322.7176°
revolutions per day: 14.83600681
mean anomaly at epoch: 37.2702°
orbit number at epoch: 65337

The dashed part of the orbit path shows where the satellite is in the earth's shadow,  

DLR